Regional Weather Roundup
Issued by NWS

Home | Current Version | Previous Version | Graphics & Text | Print | Product List | Glossary Off
Versions: 1 2 3 4 5 6 7 8 9 10 11 12 13 14 15 16 17 18 19 20 21 22 23 24 25 26 27 28 29 30 31 32 33 34 35 36 37 38 39 40 41 42 43 44 45 46 47 48 49 50

000
ASUS45 KPSR 190210
RWRAZ

ARIZONA REGIONAL HOURLY WEATHER ROUNDUP
NATIONAL WEATHER SERVICE PHOENIX AZ
700 PM MST FRI APR 18 2014

NOTE: FAIR INDICATES FEW OR NO CLOUDS BELOW 12,000 FEET WITH NO
SIGNIFICANT WEATHER AND/OR OBSTRUCTIONS TO VISIBILITY.

AZZ001>003-036-190300-
NORTHWEST ARIZONA

CITY           SKY/WX    TMP DP  RH WIND       PRES   REMARKS
BULLHEAD CITY  CLOUDY    82  32  16 S12       29.79R
KINGMAN        CLOUDY    69  25  19 SE16      29.92R
$$

AZZ004>008-015-016-018-190300-
NORTH CENTRAL ARIZONA

CITY           SKY/WX    TMP DP  RH WIND       PRES   REMARKS
GRAND CANYON   CLOUDY    52  32  46 S8        30.09S
WILLIAMS       CLOUDY    46  39  76 SE8       30.17S
PRESCOTT       CLOUDY    54  43  66 SE3       30.04F
FLAGSTAFF      LGT RAIN  44  39  82 CALM      30.12S
PAYSON         CLOUDY    57  37  47 E7        30.06F
PAGE           CLOUDY    69  28  21 S9        29.94S
$$

AZZ009>014-017-190300-
NORTHEAST ARIZONA

CITY           SKY/WX    TMP DP  RH WIND       PRES   REMARKS
WINSLOW        LGT RAIN  58  40  51 SE7       30.07F
SAINT JOHNS    LGT RAIN  52  43  71 N3        30.12S
WINDOW ROCK    CLOUDY    54  34  46 SW15G28   30.14R
SHOW LOW       CLOUDY    48  34  57 SE12      30.15F
$$

AZZ023-190300-
GREATER PHOENIX AREA

CITY           SKY/WX    TMP DP  RH WIND       PRES   REMARKS
PHOENIX        CLOUDY    80  38  22 NE10      29.82F
BUCKEYE          N/A     75  41  29 N13       29.84F
GLENDALE       CLOUDY    79  41  25 CALM      29.84F
LUKE AFB       NOT AVBL
DEER VALLEY    CLOUDY    75  39  27 NE7       29.85F
SCOTTSDALE     CLOUDY    77  39  25 NE3       29.86F
MESA-FALCON    MOCLDY    75  39  27 NE9       29.84F
MESA-GATEWAY   MOCLDY    79  37  22 E7        29.85F
CHANDLER       MOCLDY    75  41  29 E12       29.83F
$$

AZZ027-028-190300-
SOUTHWEST MARICOPA COUNTY AND PINAL COUNTY

CITY           SKY/WX    TMP DP  RH WIND       PRES   REMARKS
CASA GRANDE    PTCLDY    77  37  24 E10       29.84S
GILA BEND      MOCLDY    77  43  29 NW7       29.84R
$$

AZZ503-504-507>509-190300-
SOUTHEAST ARIZONA

CITY           SKY/WX    TMP DP  RH WIND       PRES   REMARKS
TUCSON         PTCLDY    72  44  36 E8        29.92F
DAVIS-MONTHAN  MOCLDY    71  41  33 E9        29.91S
RYAN FIELD       N/A     72  43  35 E14       29.91S
NOGALES        CLOUDY    64  45  49 NE10      29.96S
SIERRA VISTA   MOCLDY    57  46  67 E8        30.03S
SAFFORD        CLOUDY    66  45  46 CALM      30.01R
$$

AZZ020-021-025-026-031-190300-
SOUTHWEST ARIZONA

CITY           SKY/WX    TMP DP  RH WIND       PRES   REMARKS
YUMA           MOCLDY    79  43  27 E12       29.81R
$$

CAZ031-033-041-043-047-048-061-190300-
SOUTHERN CALIFORNIA

CITY           SKY/WX    TMP DP  RH WIND       PRES   REMARKS
DOWNTOWN L.A.  CLEAR     65  52  62 CALM      29.88S
L.A. AIRPORT   MOCLDY    64  53  67 W10       29.89S
SAN DIEGO      MOCLDY    65  52  62 NW5       29.92R
BURBANK        CLEAR     66  50  56 S7        29.87S
ONTARIO        MOCLDY    66  51  58 SW13      29.87R
RIVERSIDE      PTCLDY    66  52  60 W12G20    29.87R
PALM SPRINGS   MOCLDY    77  43  29 S17G28    29.81S
EL CENTRO NAS  CLOUDY    79  52  38 SE8       29.77R
IMPERIAL       CLOUDY    80  53  39 SE10      29.77R
BLYTHE         CLOUDY    74  49  41 SE16      29.82S
NEEDLES        CLOUDY    83  31  15 SW13      29.80R
$$

NVZ020-UTZ003-190300-
SOUTHERN NEVADA-UTAH

CITY           SKY/WX    TMP DP  RH WIND       PRES   REMARKS
LAS VEGAS      MOCLDY    79  27  14 S9        29.77S
SALT LAKE CITY MOCLDY    59  43  55 NW7       29.91F
$$

NMZ009-TXZ055-190300-
NEW MEXICO-WEST TEXAS

CITY           SKY/WX    TMP DP  RH WIND       PRES   REMARKS
ALBUQUERQUE    CLOUDY    71  21  15 S21       30.01R
EL PASO        CLOUDY    77  35  21 S15G30    29.98S
$$


........................KEY........................
SKY/WX - SKY CONDITION/WEATHER
TMP    - TEMPERATURE IN FAHRENHEIT
DP     - DEW POINT IN FAHRENHEIT
RH     - RELATIVE HUMIDITY IN PERCENT
WIND   - DIRECTION AND SPEED IN MILES PER HOUR (MPH)
VRB    - VARIABLE WIND DIRECTION
PRES   - MEAN SEA LEVEL PRESSURE IN INCHES OF MERCURY
         F - FALLING PRESSURE   R - RISING PRESSURE
         S - STEADY PRESSURE
VSB    - VISIBILITY IN MILES
HX     - HEAT INDEX IN FAHRENHEIT
WCI    - WIND CHILL INDEX IN FAHRENHEIT
TC     - TEMPERATURE IN CELSIUS WHICH IS ALSO KNOWN AS
         TEMPERATURE IN CENTIGRADE
AFB    - AIR FORCE BASE
         LUKE AFB IS LUKE AIR FORCE BASE
         DAVIS-MONTHAN IS DAVIS-MONTHAN AIR FORCE BASE
NAS    - NAVAL AIR STATION
         EL CENTRO NAS IS EL CENTRO NAVAL AIR STATION
N/A    - NOT AVAILABLE



USA.gov is the U.S. government's official web portal to all federal, state and local government web resources and services.